Probability
0 0 0 0 0 0 0 0 0 0 0 0 0 0 0 0 0 0 0 0 0 0 0 0 0 1 2 3 2 1 0 0 0 0 0 0 0 0 0 0 0 0 0 0
0 0 0 0 0 0 0 0 0 0 0 0 0 0 0 0 0 0 0 0 0 0 0 0 0 1 2 3 3 1 0 0 0 0 0 0 0 0 0 0 0 0 0 0
0 0 0 0 0 0 0 0 0 0 0 0 0 0 0 0 0 0 0 0 0 0 0 0 0 1 2 3 3 2 1 0 0 0 0 0 0 0 0 0 0 0 0 0
0 0 0 0 0 0 0 0 0 0 0 0 0 0 0 0 0 0 0 0 0 0 0 0 0 1 2 3 3 2 1 0 0 0 0 0 0 0 0 0 0 0 0 0
0 0 0 0 0 0 0 0 0 0 0 0 0 0 0 0 0 0 0 0 0 0 0 0 0 1 2 3 3 2 1 0 0 0 0 0 0 0 0 0 0 0 0 0
0 0 0 0 0 0 0 0 0 0 0 0 0 0 0 0 0 0 0 0 0 0 0 0 0 0 1 3 3 3 1 0 0 0 0 0 0 0 0 0 0 0 0 0
0 0 0 0 0 0 0 0 0 0 0 0 0 0 0 0 0 0 0 0 0 0 0 0 0 0 1 2 3 3 1 0 0 0 0 0 0 0 0 0 0 0 0 0
0 0 0 0 0 0 0 0 0 0 0 0 0 0 0 0 0 0 0 0 0 0 0 0 0 0 0 1 2 3 1 0 0 0 0 0 0 0 0 0 0 0 0 0
0 0 0 0 0 0 0 0 0 0 0 0 0 0 0 0 0 0 0 0 0 0 0 0 0 0 0 0 1 1 1 0 0 0 0 0 0 0 0 0 0 0 0 0
0 0 0 0 0 0 0 0 0 0 0 0 0 0 0 0 0 0 0 0 0 0 0 0 0 0 0 0 0 0 0 0 0 0 0 0 0 0 0 0 0 0 0 0
0 0 0 0 0 0 0 0 0 0 0 0 0 0 0 0 0 0 0 0 0 0 0 0 0 0 0 0 0 0 0 0 0 0 0 0 0 0 0 0 0 0 0 0
0 0 0 0 0 0 0 0 0 0 0 0 0 0 0 0 0 0 0 0 0 0 0 0 0 0 0 0 0 0 0 0 0 0 0 0 0 0 0 0 0 0 0 0
0 0 0 0 0 0 0 0 0 0 0 0 0 0 0 0 0 0 0 0 0 0 0 0 0 0 0 0 0 0 0 0 0 0 0 0 0 0 0 0 0 0 0 0
0 0 0 0 0 0 0 0 0 0 0 0 0 0 0 0 0 0 0 0 0 0 0 0 0 0 0 0 0 0 0 0 0 0 0 0 0 0 0 0 0 0 0 0
0 0 0 0 0 0 0 0 0 0 0 0 0 0 0 0 0 0 0 0 0 0 0 0 0 0 0 0 0 0 0 0 0 0 0 0 0 0 0 0 0 0 0 0
0 0 0 0 0 0 0 0 0 0 0 0 0 0 0 0 0 0 0 0 0 0 0 0 0 0 0 0 0 0 0 0 0 0 0 0 0 0 0 0 0 0 0 0
0 0 0 0 0 0 0 0 0 0 0 0 0 0 0 0 0 0 0 0 0 0 0 0 0 0 0 0 0 0 0 0 0 0 0 0 0 0 0 0 0 0 0 0
0 0 0 0 0 0 0 0 0 0 0 0 0 0 0 0 0 0 0 0 0 0 0 0 0 0 0 0 0 0 0 0 0 0 0 0 0 0 0 0 0 0 0 0
0 0 0 0 0 0 0 0 0 0 0 0 0 0 0 0 0 0 0 0 0 0 0 0 0 0 0 0 0 0 0 0 0 0 0 0 0 0 0 0 0 0 0 0
0 0 0 0 0 0 0 0 0 0 0 0 0 0 0 0 0 0 0 0 0 0 0 0 0 0 0 0 0 0 0 0 0 0 0 0 0 0 0 0 0 0 0 0
0 0 0 0 0 0 0 0 0 0 0 0 0 0 0 0 0 0 0 0 0 0 0 0 0 0 0 0 0 0 0 0 0 0 0 0 0 0 0 0 0 0 0 0
0 0 0 0 0 0 0 0 0 0 0 0 0 0 0 0 0 0 0 0 0 0 0 0 0 0 0 0 0 0 0 0 0 0 0 0 0 0 0 0 0 0 0 0
0 0 0 0 0 0 0 0 0 0 0 0 0 0 0 0 0 0 0 0 0 0 0 0 0 0 0 0 0 0 0 0 0 0 0 0 0 0 0 0 0 0 0 0
0 0 0 0 0 0 0 0 0 0 0 0 0 0 0 0 0 0 0 0 0 0 0 0 0 0 0 0 0 0 0 0 0 0 0 0 0 0 0 0 0 0 0 0
0 0 0 0 0 0 0 0 0 0 0 0 0 0 0 0 0 0 0 0 0 0 0 0 0 0 0 0 0 0 0 0 0 0 0 0 0 0 0 0 0 0 0 0
0 0 0 0 0 0 0 0 0 0 0 0 0 0 0 0 0 0 0 0 0 0 0 0 0 0 0 0 0 0 0 0 0 0 0 0 0 0 0 0 0 0 0 0
Wind_Speed
3 3 2 5 5 4 2 3 5 6 3 3 8 12 13 8 7 9 8 7 8 8 6 4 3 3 3 3 3 4 4 4 3 2 2 2 1 1 0 1 1 1 2 2
3 3 5 2 2 1 2 3 5 6 3 3 7 12 12 9 8 9 9 9 8 6 4 4 3 3 3 4 4 4 4 4 4 3 2 1 1 1 1 1 1 1 1 1
5 3 1 2 1 1 3 4 4 5 5 3 5 10 7 6 5 5 6 6 6 7 7 6 5 5 4 5 5 4 4 4 4 3 2 2 2 1 1 0 0 0 1 1
3 2 1 2 2 3 5 3 3 3 3 5 1 8 9 5 5 6 6 6 6 6 6 5 4 4 5 5 4 4 4 4 4 4 3 3 3 2 2 1 1 0 1 1
4 2 2 3 4 4 4 0 1 2 3 4 2 5 11 3 5 7 7 6 6 6 5 5 5 5 5 4 4 4 4 3 3 4 4 4 2 2 1 1 1 1 0 0
3 1 3 3 1 3 1 2 2 2 2 5 5 5 10 5 6 6 5 5 5 4 4 4 3 2 2 3 3 3 4 3 3 4 4 4 4 3 2 2 2 1 0 0
3 2 1 1 2 1 2 3 3 5 3 7 2 5 11 7 5 5 6 6 4 3 2 2 2 3 3 4 4 4 4 4 4 4 4 4 4 4 4 4 3 2 1 1
3 5 4 2 4 4 3 5 5 5 5 6 3 8 10 6 4 4 5 5 3 2 2 3 3 4 4 4 5 5 5 4 4 4 4 3 3 3 3 3 3 3 2 2
5 5 0 1 1 5 4 3 3 3 1 4 7 8 10 5 4 3 3 3 3 3 3 3 3 3 3 3 5 6 5 4 4 4 3 3 3 3 3 2 2 2 2 1
5 3 2 1 1 0 3 4 3 3 2 6 7 6 6 6 5 4 4 4 4 3 3 3 3 2 2 2 2 3 4 4 4 3 3 3 3 3 3 2 2 2 2 1
3 3 2 1 5 6 4 3 3 3 3 4 6 8 6 6 4 4 5 4 3 3 3 3 2 2 1 1 1 2 2 3 3 3 3 3 3 3 3 3 3 2 2 2
4 4 4 6 3 2 4 6 7 5 5 4 5 11 4 4 3 2 4 4 3 3 3 2 2 1 1 1 1 2 3 3 3 3 2 3 3 3 3 3 2 2 2 2
6 5 1 4 2 1 3 4 5 3 3 5 6 11 4 3 4 4 4 5 4 4 3 2 2 2 2 2 2 2 3 3 2 2 2 2 2 3 3 3 2 2 2 2
5 5 8 10 7 5 6 6 6 6 6 8 12 13 10 8 7 7 6 5 5 4 3 3 2 2 2 2 2 2 2 2 2 2 3 3 3 3 3 2 2 2 2 2
4 5 6 7 5 4 8 10 11 13 12 12 12 13 14 9 7 7 6 5 4 4 4 3 3 3 3 2 2 2 2 2 2 3 3 4 3 3 2 2 2 2 2 2
4 4 2 5 3 4 8 12 13 15 13 13 13 17 10 6 4 5 6 5 6 6 5 4 3 3 3 3 2 2 2 2 2 3 4 3 2 2 2 3 2 2 2 2
5 5 3 5 3 3 12 13 14 10 10 11 15 14 4 4 6 7 6 5 6 6 6 5 3 3 3 3 3 3 3 2 2 3 3 3 2 3 3 2 2 2 2 2
7 6 3 1 1 10 11 3 8 10 9 11 10 8 6 7 7 6 5 5 6 5 5 4 3 3 3 2 1 1 1 1 2 2 2 2 2 3 2 2 2 2 2 2
6 7 4 3 5 12 10 4 7 8 9 10 12 11 7 3 4 5 4 3 5 5 4 3 3 2 2 2 1 1 1 1 1 2 2 2 2 2 2 3 3 2 2 2
3 4 5 5 5 11 8 2 3 3 8 6 8 9 6 1 3 6 2 2 3 3 2 2 2 1 1 2 1 0 1 1 1 2 2 2 2 3 3 3 2 2 2 2
5 5 7 7 8 13 7 3 5 5 8 3 5 6 5 6 7 5 3 3 3 3 2 2 1 1 2 2 0 1 1 2 2 2 1 1 1 2 2 2 2 2 1 1
11 9 9 7 8 14 5 7 9 8 2 2 3 4 5 6 5 4 3 3 2 2 3 2 1 2 2 1 0 1 2 2 2 1 1 1 1 1 1 2 1 1 2 1
10 11 9 12 12 4 6 7 5 2 3 3 3 3 4 5 5 4 4 3 3 3 3 2 2 2 2 2 1 2 2 2 1 1 0 0 0 0 1 1 1 1 1 1
6 3 4 7 10 7 6 5 5 3 4 4 3 4 4 5 5 4 4 4 3 3 3 2 2 2 3 3 2 2 2 1 0 0 0 0 0 1 1 0 1 1 2 2
7 7 5 8 8 5 6 7 6 5 4 4 4 4 5 5 5 5 4 4 3 3 3 2 2 3 4 3 3 2 1 0 0 0 0 0 0 1 0 0 1 2 2 3
8 10 10 10 7 6 7 6 6 6 6 5 5 4 4 4 5 5 4 4 3 3 2 2 2 3 3 3 3 3 1 0 0 1 1 0 0 0 0 0 2 2 1 2
Wind_Direction
47 76 203 222 210 211 196 223 263 271 282 258 257 268 273 265 250 250 252 249 251 251 254 250 237 215 195 192 187 190 175 168 155 155 164 171 190 178 133 135 122 121 106 104
53 248 238 209 183 165 198 258 271 288 298 264 279 277 270 251 237 234 238 243 245 252 260 247 237 216 205 200 192 189 182 173 173 171 168 168 155 162 167 137 123 125 120 123
186 238 190 151 170 220 245 224 242 270 320 307 307 293 269 265 254 251 242 239 241 236 238 238 225 218 210 205 198 192 185 178 177 159 126 99 82 68 94 149 183 139 139 134
235 257 181 182 225 192 255 235 234 270 309 296 335 295 287 277 281 260 251 244 245 245 236 232 225 221 217 211 196 185 178 177 173 161 158 157 167 189 208 197 204 179 155 165
239 205 170 211 224 182 223 271 237 265 250 287 260 253 282 300 276 267 255 246 248 244 233 229 224 221 218 202 187 180 172 173 173 172 177 179 185 186 162 150 164 165 172 191
241 224 197 204 210 173 155 40 24 35 66 272 231 210 276 248 239 264 263 251 248 248 240 237 234 222 216 199 181 172 171 180 181 181 183 187 188 178 169 186 192 198 206 226
294 267 238 143 92 62 96 83 13 348 335 255 225 226 254 253 244 242 262 269 266 257 246 245 235 222 215 204 192 181 181 192 192 191 196 200 197 190 192 197 198 197 202 225
217 264 218 183 175 182 195 160 171 217 246 280 269 241 256 263 270 261 260 266 278 289 274 259 241 227 218 210 199 189 195 202 197 198 208 209 204 199 203 202 198 200 208 216
195 245 279 198 196 154 165 200 180 153 276 280 264 273 292 289 299 293 290 300 298 298 292 279 269 247 228 213 208 199 198 202 203 205 209 210 204 202 203 199 192 194 204 206
163 238 264 271 89 304 174 153 120 149 211 266 281 269 262 276 283 299 298 302 301 302 299 297 276 256 250 229 215 197 196 199 203 202 206 210 207 204 196 186 191 193 200 196
154 176 275 231 199 194 155 164 164 168 188 203 272 268 238 245 262 271 281 289 287 287 285 285 289 278 270 260 204 194 199 201 203 204 204 201 201 193 186 189 194 195 192 189
162 146 237 243 237 195 188 188 166 180 233 215 248 270 281 263 281 279 290 299 297 287 280 277 277 283 280 251 234 213 206 207 211 206 199 199 197 186 190 201 201 189 191 194
155 152 238 319 304 220 224 212 195 174 166 199 218 263 303 318 315 305 293 298 301 298 298 304 288 259 251 245 234 225 214 212 209 194 191 196 202 199 204 208 198 189 191 196
142 174 193 215 226 189 218 219 194 178 207 230 233 257 283 291 295 301 301 301 302 296 291 288 278 272 268 258 241 234 237 219 205 195 196 208 212 210 208 207 200 194 192 195
151 211 227 250 256 221 232 232 208 210 214 225 246 251 262 267 270 278 286 293 296 295 294 282 272 270 269 267 260 249 249 234 205 199 209 221 219 210 200 198 204 200 199 205
164 198 209 262 258 250 260 245 228 229 229 238 258 266 263 266 270 279 281 287 287 291 293 286 278 275 269 260 255 250 246 244 211 203 218 223 211 207 209 207 201 197 199 203
172 158 175 253 298 332 263 230 210 214 215 209 234 250 269 274 267 263 266 269 272 283 287 281 272 267 266 257 243 242 243 239 211 212 219 213 201 208 215 210 197 202 208 208
168 158 166 226 25 240 244 187 193 211 232 221 241 261 255 253 273 272 255 254 274 285 290 286 282 283 285 283 281 271 261 229 210 210 218 220 205 211 211 203 207 215 214 214
177 160 159 171 237 271 282 235 185 200 249 223 235 256 267 290 313 286 259 258 262 271 276 275 275 283 296 296 293 306 321 305 219 221 222 220 213 215 209 213 216 217 214 225
153 164 167 175 207 243 253 212 187 160 262 238 218 239 249 174 281 272 277 290 293 300 299 295 307 315 304 300 286 185 285 307 269 248 242 230 208 205 215 220 216 215 208 219
164 182 199 204 228 257 249 171 133 183 249 248 213 227 213 215 236 265 296 299 294 298 302 308 311 303 291 300 320 261 285 277 283 291 249 236 218 209 214 216 208 193 188 191
180 182 196 185 217 248 194 153 190 221 268 245 227 223 223 243 260 276 289 297 298 301 306 307 307 306 311 312 197 269 280 294 314 308 231 229 238 210 176 172 188 175 166 179
202 194 188 196 219 243 172 202 221 211 239 247 237 244 229 242 254 263 272 279 279 277 287 295 289 303 315 319 281 250 282 313 332 330 222 240 232 117 136 157 173 169 162 180
230 201 194 238 255 255 242 248 254 247 245 257 253 252 236 238 248 259 266 276 278 278 280 285 282 288 300 313 309 275 290 319 3 211 250 204 137 76 67 123 171 177 183 193
206 179 203 243 262 286 261 236 242 253 258 261 261 245 234 230 247 250 259 268 267 275 284 275 259 266 285 306 306 309 315 359 23 169 188 180 140 129 62 1 219 210 219 205
195 189 195 228 215 211 242 233 228 236 246 249 254 263 253 231 242 251 255 260 263 269 273 273 273 273 287 302 305 314 321 280 173 179 186 190 180 156 143 52 359 3 324 306